sat.trackr.live / text

‹ back to catalog

STARLINK-33738

NORAD 63889 · 2025-094AB

PAYLOAD ACTIVE UNKNOWN

§ Identity

Operator
Country
US
Launch date
2025-05-10
Launch site
AFWTR
Launch vehicle
Mass (kg)
RCS (m²)

Purposes: comms

External: N2YO · Heavens-Above · Gunter

§ Orbital elements

Epoch: 2026-09-20T14:25:35.623200Z

Period
94.14 min
Inclination
70.0009°
Eccentricity
0.0003034
Mean motion
15.29587137 rev/d
Perigee alt
475.0 km
Apogee alt
479.1 km
Semi-major
6,855.2 km
B*
2.1967e-4
RAAN
100.8142°
Arg perigee
269.0343°
Mean anomaly
91.0484°
Rev number
7,666

§ Raw data

STARLINK-337381 63889U 25094AB  26263.60110675  .00006193  00000+0  21967-3 0  99952 63889  70.0009 100.8142 0003034 269.0343  91.0484 15.29587137 76664

JSON: /api/v1/satellites/63889 · /tle

For live sub-satellite position, see the globe view (requires WebGL).

§ Visibility from observer

Set your observer location to see the next 7 days of passes ≥ 10°. The values pass through the URL so the page stays shareable.

No JS? Fill the form by hand. The geolocation button needs JavaScript.